DW1824 Weather Reports


Display with metric or nautical units.
time (UTC)temp
F
wind
direction
speed
MPH
gust
MPH
rain 1hr
in
rain 24hr
in
rain mn
in
humidity
%
barometer
mb
20260906004339 85 114 0.0 1.0 0.00 0.00 0.00 71 1011.6
20260906003342 85 30 0.0 2.0 0.00 0.00 0.00 70 1011.7
20260906002326 85 350 1.0 4.0 0.00 0.00 0.00 69 1011.8
20260906001331 86 10 1.0 3.0 0.00 0.00 0.00 69 1011.8
20260906000334 86 51 0.0 2.0 0.00 0.00 0.00 68 1011.9
20260905235340 87 179 1.0 5.0 0.00 0.00 0.00 67 1011.8
20260905234404 88 33 2.0 4.0 0.00 0.00 0.00 66 1011.9
20260905233329 88 106 0.0 4.0 0.00 0.00 0.00 68 1011.7
20260905232336 89 127 0.0 7.0 0.00 0.00 0.00 67 1011.7
20260905231341 89 118 3.0 8.0 0.00 0.00 0.00 65 1011.7
20260905230326 89 124 2.0 8.0 0.00 0.00 0.00 64 1011.4
20260905225331 89 128 5.0 8.0 0.00 0.00 0.00 63 1011.4
20260905224338 90 128 6.0 10.0 0.00 0.00 0.00 62 1011.3
20260905223340 90 126 4.0 13.0 0.00 0.00 0.00 62 1011.3
20260905222329 90 138 10.0 13.0 0.00 0.00 0.00 61 1011.3
20260905221333 91 139 9.0 14.0 0.00 0.00 0.00 61 1011.2
20260905220335 93 126 2.0 4.0 0.00 0.00 0.00 55 1011.1
20260905215340 93 162 1.0 3.0 0.00 0.00 0.00 52 1011.0
20260905214326 92 124 1.0 2.0 0.00 0.00 0.00 55 1011.1
20260905213331 92 124 0.0 3.0 0.00 0.00 0.00 55 1011.3
20260905212356 92 122 2.0 4.0 0.00 0.00 0.00 55 1011.4
20260905211324 91 158 1.0 2.0 0.00 0.00 0.00 59 1011.6
20260905210326 87 211 2.0 3.0 0.00 0.00 0.00 67 1011.4
20260905205352 87 172 2.0 4.0 0.00 0.00 0.00 67 1011.4
20260905204336 86 171 3.0 8.0 0.00 0.00 0.00 69 1011.5
20260905203359 91 195 2.0 4.0 0.00 0.00 0.00 59 1011.6
20260905202343 92 135 2.0 6.0 0.00 0.00 0.00 56 1011.7
20260905201349 93 139 2.0 6.0 0.00 0.00 0.00 54 1011.8
20260905200350 95 130 3.0 4.0 0.00 0.00 0.00 51 1011.9
20260905195334 95 122 1.0 2.0 0.00 0.00 0.00 52 1012.1
20260905194324 95 116 1.0 4.0 0.00 0.00 0.00 53 1012.2
20260905193328 93 300 1.0 3.0 0.00 0.00 0.00 57 1012.4
20260905192335 93 352 1.0 4.0 0.00 0.00 0.00 56 1012.5
20260905191340 93 333 1.0 3.0 0.00 0.00 0.00 55 1012.6
20260905190325 94 64 0.0 4.0 0.00 0.00 0.00 56 1012.7
20260905185329 92 195 1.0 5.0 0.00 0.00 0.00 58 1012.8
20260905184335 92 230 1.0 2.0 0.00 0.00 0.00 58 1013.0
20260905183336 93 80 0.0 2.0 0.00 0.00 0.00 58 1013.2
20260905182326 94 314 1.0 4.0 0.00 0.00 0.00 56 1013.3
20260905181354 94 321 1.0 8.0 0.00 0.00 0.00 57 1013.5
20260905180336 92 316 1.0 6.0 0.00 0.00 0.00 60 1013.7
20260905175341 92 281 1.0 4.0 0.00 0.00 0.00 56 1014.0
20260905174325 92 360 0.0 2.0 0.00 0.00 0.00 60 1014.2
20260905173330 90 327 2.0 4.0 0.00 0.00 0.00 62 1014.3
20260905172336 91 258 1.0 3.0 0.00 0.00 0.00 63 1014.3
20260905171326 93 107 0.0 3.0 0.00 0.00 0.00 58 1014.4
20260905170350 92 149 2.0 3.0 0.00 0.00 0.00 59 1014.5
20260905165334 91 131 2.0 4.0 0.00 0.00 0.00 60 1014.6
20260905164337 91 130 1.0 6.0 0.00 0.00 0.00 61 1014.7
20260905163339 90 120 0.0 2.0 0.00 0.00 0.00 65 1014.7
20260905162325 88 154 0.0 2.0 0.00 0.00 0.00 70 1014.7
20260905161330 89 108 1.0 3.0 0.00 0.00 0.00 68 1014.8
20260905160331 88 120 1.0 3.0 0.00 0.00 0.00 71 1014.8
20260905155334 87 137 1.0 3.0 0.00 0.00 0.00 74 1014.6
20260905154342 86 122 1.0 3.0 0.00 0.00 0.00 77 1014.6
20260905153325 86 137 0.0 0.0 0.00 0.00 0.00 80 1014.7
20260905152330 85 137 0.0 2.0 0.00 0.00 0.00 81 1014.7
20260905151334 85 215 0.0 3.0 0.00 0.00 0.00 83 1014.7
20260905150337 85 341 0.0 3.0 0.00 0.00 0.00 84 1014.7
20260905145343 84 158 0.0 0.0 0.00 0.00 0.00 85 1014.7
20260905144328 84 309 0.0 0.0 0.00 0.00 0.00 87 1014.6
20260905143337 83 177 0.0 0.0 0.00 0.00 0.00 87 1014.7
20260905142343 82 360 0.0 0.0 0.00 0.00 0.00 89 1014.7
20260905141327 81 360 0.0 0.0 0.00 0.00 0.00 91 1014.7
20260905140351 80 10 0.0 0.0 0.00 0.00 0.00 93 1014.6
20260905135336 79 10 0.0 0.0 0.00 0.00 0.00 94 1014.6
20260905134341 78 59 0.0 0.0 0.00 0.00 0.00 95 1014.6
20260905133324 78 64 0.0 0.0 0.00 0.00 0.00 95 1014.5
20260905132349 77 21 0.0 0.0 0.00 0.00 0.00 95 1014.6
20260905131337 77 18 0.0 0.0 0.00 0.00 0.00 95 1014.5
20260905130340 76 18 0.0 0.0 0.00 0.00 0.00 95 1014.3
20260905125346 75 28 0.0 0.0 0.00 0.00 0.00 94 1014.2
20260905124329 75 140 0.0 0.0 0.00 0.00 0.00 94 1014.1
20260905123331 75 139 0.0 0.0 0.00 0.01 0.00 94 1013.9
20260905122337 75 139 0.0 0.0 0.00 0.01 0.00 94 1013.9
20260905121324 75 140 0.0 0.0 0.00 0.01 0.00 94 1013.8
20260905120325 75 139 0.0 0.0 0.00 0.01 0.00 94 1013.7
20260905115336 75 139 0.0 0.0 0.00 0.01 0.00 94 1013.5
20260905114340 75 139 0.0 0.0 0.00 0.01 0.00 93 1013.5
20260905113343 75 139 0.0 0.0 0.00 0.01 0.00 93 1013.5
20260905112327 75 139 0.0 0.0 0.00 0.01 0.00 94 1013.4
20260905111333 75 139 0.0 0.0 0.00 0.01 0.00 94 1013.3
20260905110334 75 139 0.0 0.0 0.00 0.01 0.00 93 1013.1
20260905105340 75 139 0.0 0.0 0.00 0.01 0.00 93 1013.1
20260905104330 75 139 0.0 0.0 0.00 0.01 0.00 93 1013.2
20260905103330 75 139 0.0 0.0 0.00 0.01 0.00 93 1013.2
20260905102336 75 139 0.0 0.0 0.00 0.01 0.00 93 1013.0
20260905101342 75 139 0.0 0.0 0.00 0.01 0.00 93 1012.9
20260905100325 75 139 0.0 0.0 0.00 0.01 0.00 93 1012.8
20260905095331 75 139 0.0 0.0 0.00 0.01 0.00 93 1012.9
20260905094337 75 139 0.0 0.0 0.00 0.01 0.00 93 1012.8
20260905093339 76 139 0.0 0.0 0.00 0.01 0.00 93 1012.9
20260905092328 76 139 0.0 0.0 0.00 0.01 0.00 93 1013.0
20260905091353 76 139 0.0 0.0 0.00 0.01 0.00 93 1013.1
20260905090354 76 139 0.0 0.0 0.00 0.01 0.00 91 1013.0
20260905085359 76 139 0.0 0.0 0.00 0.01 0.00 93 1013.0
20260905084343 76 139 0.0 0.0 0.00 0.01 0.00 93 1013.0
20260905083349 76 139 0.0 0.0 0.00 0.01 0.00 92 1012.9
20260905082353 76 139 0.0 0.0 0.00 0.01 0.00 92 1012.9
20260905081358 76 139 0.0 0.0 0.00 0.01 0.00 92 1013.0
20260905080340 77 139 0.0 0.0 0.00 0.01 0.00 92 1013.1
20260905075326 76 139 0.0 0.0 0.00 0.01 0.00 92 1013.0
20260905074336 76 139 0.0 0.0 0.00 0.01 0.00 91 1013.0
20260905073339 77 139 0.0 0.0 0.00 0.01 0.00 91 1013.1
20260905072324 78 139 0.0 0.0 0.00 0.01 0.00 91 1013.3
20260905071329 78 139 0.0 0.0 0.00 0.01 0.00 89 1013.4
20260905070332 78 139 0.0 0.0 0.00 0.01 0.00 90 1013.4
20260905065337 78 139 0.0 0.0 0.00 0.01 0.00 90 1013.4
20260905064404 78 139 0.0 0.0 0.00 0.01 0.00 90 1013.5
20260905063404 79 139 0.0 1.0 0.00 0.01 0.00 89 1013.5
20260905062332 79 127 0.0 2.0 0.00 0.01 0.00 89 1013.7
20260905061337 79 168 0.0 0.0 0.00 0.01 0.00 89 1013.7
20260905060341 79 168 0.0 0.0 0.00 0.01 0.00 88 1013.8
20260905055326 79 168 0.0 0.0 0.00 0.01 0.00 88 1013.7
20260905054353 80 168 0.0 0.0 0.00 0.01 0.00 88 1013.7
20260905053336 80 168 0.0 1.0 0.00 0.01 0.00 87 1013.6
20260905052340 80 168 0.0 1.0 0.00 0.01 0.00 87 1013.5
20260905051326 80 171 0.0 1.0 0.00 0.01 0.00 87 1013.5
20260905050350 80 171 0.0 2.0 0.00 0.01 0.00 87 1013.6
20260905045336 80 171 0.0 1.0 0.00 0.01 0.01 86 1013.7
20260905044341 80 171 0.0 1.0 0.00 0.01 0.01 85 1013.8
20260905043343 80 171 0.0 1.0 0.00 0.01 0.01 85 1013.9
20260905042329 80 168 0.0 1.0 0.00 0.01 0.01 85 1013.9
20260905041355 81 137 0.0 1.0 0.00 0.01 0.01 84 1014.0
20260905040339 81 137 0.0 2.0 0.00 0.01 0.01 83 1014.0
20260905035325 81 126 2.0 4.0 0.00 0.01 0.01 83 1014.0
20260905034333 82 124 2.0 3.0 0.00 0.01 0.01 82 1014.0
20260905033334 82 132 2.0 2.0 0.00 0.01 0.01 82 1014.1
20260905032340 82 135 2.0 4.0 0.00 0.01 0.01 81 1014.0
20260905031325 82 124 2.0 3.0 0.00 0.01 0.01 81 1014.0
20260905030329 82 128 1.0 3.0 0.00 0.01 0.01 80 1013.9
20260905025334 83 125 2.0 3.0 0.00 0.01 0.01 79 1013.9
20260905024340 83 128 2.0 3.0 0.00 0.01 0.01 79 1013.9
20260905023343 83 131 2.0 4.0 0.00 0.01 0.01 78 1013.7
20260905022332 84 128 2.0 3.0 0.00 0.01 0.01 77 1013.4
20260905021339 84 133 2.0 4.0 0.00 0.01 0.01 77 1013.3
20260905020342 84 137 1.0 2.0 0.00 0.01 0.01 77 1013.2
20260905015326 84 137 1.0 2.0 0.00 0.01 0.01 76 1013.1
20260905014331 84 137 2.0 4.0 0.00 0.01 0.01 75 1013.0
20260905013354 85 128 2.0 5.0 0.01 0.01 0.01 75 1012.9
20260905012337 85 115 3.0 6.0 0.01 0.01 0.01 74 1012.7
20260905011342 85 143 2.0 4.0 0.01 0.01 0.01 73 1012.6
20260905010329 86 104 1.0 3.0 0.01 0.01 0.01 72 1012.6
20260905005334 86 119 2.0 4.0 0.01 0.01 0.01 71 1012.5